Location: Chuathbaluk
(61.5726°N, 159.2454°W)
Time: 17:18:44
(UTC+00:00)

ITAMSAT 1 - Pass Details

Date: 25 January 2021
Orbit: 784 x 796 km, 98.9° (Epoch: 05 March)

Event Time Altitude Azimuth Distance (km) Brightness Sun altitude
Rises 17:50:04 0° 19° (NNE) 3,292 10.8 -9.5°
Reaches altitude 10° 17:52:24 10° 20° (NNE) 2,359 10.1 -9.2°
Maximum altitude 17:57:38 86° 110° (ESE) 798 7.8 -8.7°
Drops below altitude 10° 18:02:50 10° 199° (SSW) 2,349 10.2 -8.1°
Sets 18:05:08 0° 200° (SSW) 3,275 10.9 -7.9°
